Flag for Colombia Weather past 2 weeks in Buenaventura, Colombia

Now
68 °F

Passing clouds.


Feels Like: 68 °F
Forecast: 73 / 85 °F
Wind: No wind

Location: Cali / Alfonso Bonillaaragon

Current Time: Dec 20, 2014 at 4:54:54 AM

Latest Report: Dec 20, 2014 at 4:00 AM


Visibility: N/A

Pressure: 29.92 "Hg

Humidity: 94%

Dew point: 66 °F

Location of BuenaventuraLocation

Historic Weather in Buenaventura — Graph

°F

Buenaventura temperature yesterday

Maximum temperature yesterday: 88 °F (at 4:00 PM)
Minimum temperature yesterday: 68 °F (at 1:00 AM)
Average temperature yesterday: 76 °F

Past Weeks' High & Low Weather Summary

 TemperatureHumidityPressure
High90 °F (Dec 8, 2:00 PM)100% (Dec 6, 1:00 AM)30.09 "Hg (Dec 6, 1:00 AM)
Low54 °F (Dec 17, 1:00 AM)40% (Dec 6, 3:00 PM)29.80 "Hg (Dec 8, 4:00 PM)
Average74 °F77%29.97 "Hg
* Reported Dec 5 4:00 AM — Dec 20 4:00 AM, Buenaventura, Weather by CustomWeather, © 2014

Note: Actual official high and low records may vary slightly from our data, if they occured in-between our weather recording intervals... More about our weather records

Advertising

Buenaventura weather history for previous 24 hours

 ConditionsComfort  
Time TempWeatherWind HumidityBarometerVisibility
4:00 AM
Dec 20
68 °FPassing clouds.5 mph94%29.92 "HgN/A
3:00 AM68 °FPassing clouds.5 mph94%29.92 "HgN/A
2:00 AM68 °FPassing clouds.No wind94%29.93 "HgN/A
1:00 AM70 °FPassing clouds.6 mph88%29.95 "HgN/A
12:00 AM72 °FPassing clouds.5 mph83%29.96 "HgN/A
11:00 PM
Dec 19
72 °FPassing clouds.7 mph83%29.98 "HgN/A
10:00 PM73 °FPassing clouds.8 mph78%29.98 "HgN/A
9:00 PM75 °FPassing clouds.10 mph74%29.96 "HgN/A
8:00 PM75 °FPassing clouds.10 mph74%29.92 "HgN/A
7:00 PM77 °FPassing clouds.8 mph69%29.89 "HgN/A
6:00 PM79 °FPassing clouds.9 mph65%29.87 "HgN/A
5:00 PM82 °FScattered clouds.14 mph55%29.84 "HgN/A
4:00 PM88 °FScattered clouds.16 mph43%29.84 "HgN/A
3:00 PM86 °FScattered clouds.12 mph49%29.86 "HgN/A
2:00 PM84 °FScattered clouds.7 mph51%29.89 "HgN/A
1:00 PM84 °FScattered clouds.2 mph51%29.93 "HgN/A
12:00 PM84 °FScattered clouds.7 mph51%29.96 "Hg6 mi
11:00 AM81 °FScattered clouds.5 mph58%29.99 "Hg5 mi
10:00 AM77 °FScattered clouds.5 mph65%30.01 "Hg5 mi
9:00 AM73 °FPassing clouds.5 mph78%30.02 "Hg4 mi
7:00 AM70 °FScattered clouds.No wind83%29.98 "HgN/A
6:00 AM70 °FPartly cloudy.3 mph88%29.97 "HgN/A
5:00 AM70 °FPassing clouds.No wind88%29.93 "HgN/A
4:00 AM70 °FPassing clouds.No wind88%29.92 "HgN/A
Weather by CustomWeather, © 2014

See weather overviewHow to use our weather pages